Location: Karlsruhe
(49.0131°N, 8.3874°E)
Time: 16:58:09
(UTC+01:00)

ISS - Pass Details

Date: 21 March 2017
Orbit: 399 x 409 km, 51.6° (Epoch: 25 March)

Event Time Altitude Azimuth Distance (km) Brightness Sun altitude
Exits shadow 04:36:50 55° 190° (S) 500 -3.7 -18.4°
Drops below altitude 10° 04:39:53 10° 129° (SE) 1,471 -0.6 -18.0°
Sets 04:41:59 0° 125° (SE) 2,329 0.5 -17.7°
